CAPE
0 0 0 0 0 0 0 0 0 0 0 0 0 0 0 0 0 0 0 0 0 0
0 0 0 0 0 0 0 0 0 0 0 0 0 0 0 0 0 0 0 0 0 0
0 0 0 0 0 0 0 0 0 0 0 0 0 0 0 0 0 0 0 0 0 0
0 0 0 0 0 0 0 0 0 0 0 0 0 0 0 0 0 0 0 0 0 0
0 0 0 0 0 0 0 0 0 0 0 0 0 0 0 0 0 0 0 0 0 0
0 0 0 0 0 0 0 0 0 0 0 0 0 0 0 0 0 0 0 0 0 0
0 0 0 0 0 0 0 0 0 0 0 0 0 0 0 0 0 0 0 0 0 0
0 0 0 0 0 0 0 0 0 0 0 0 0 0 0 0 0 0 0 0 0 0
0 0 0 0 0 0 0 0 0 0 0 1 0 0 0 0 0 0 0 0 0 1
0 0 0 0 0 0 0 0 0 0 2 0 4 0 0 0 0 0 0 0 7 0
0 0 0 0 0 0 0 0 0 0 0 0 0 1 0 0 0 0 0 2 0 0
0 0 0 0 0 0 0 0 0 0 0 0 0 0 0 0 4 1 0 0 0 0
0 0 0 0 0 0 0 0 0 0 0 0 0 0 0 0 0 0 0 0 0 0
0 0 0 0 0 0 0 0 0 2 0 0 0 0 0 0 0 0 0 0 0 0
CIN
0 0 0 0 0 0 0 0 0 0 0 0 0 0 0 0 0 0 0 0 0 0
0 0 0 0 0 0 0 0 0 0 0 0 0 0 0 0 0 0 0 0 0 0
0 0 0 0 0 0 0 0 0 0 0 0 0 0 0 0 0 0 0 0 0 0
0 0 0 0 0 0 0 0 0 0 0 0 0 0 0 0 0 0 0 0 0 0
0 0 0 0 0 0 0 0 0 0 0 0 0 0 0 0 0 0 0 0 0 0
0 0 0 0 0 0 0 0 0 0 0 0 0 0 0 0 0 0 0 0 0 0
0 0 0 0 0 0 0 0 0 0 0 0 0 0 0 0 0 0 0 0 -4 0
0 0 0 0 0 0 0 0 0 0 0 0 0 0 0 0 0 0 0 0 0 0
0 0 0 0 0 0 0 0 0 0 -1 -10 0 0 0 0 0 0 0 0 0 -35
0 0 0 0 0 0 0 0 0 0 -13 0 -19 0 0 0 0 0 0 0 -72 0
0 0 0 0 0 0 0 0 0 0 0 -6 -14 -8 0 0 0 0 0 -39 0 0
0 0 0 0 0 0 0 0 0 0 0 0 -2 0 0 0 -57 -69 -5 0 0 0
0 0 0 0 0 0 0 0 0 0 0 0 0 0 -4 0 0 0 0 0 0 0
0 0 0 0 0 0 0 0 -8 -17 0 0 0 0 0 0 0 0 0 0 0 0
Wind_Speed
3 4 5 7 8 9 9 11 12 14 16 16 14 15 15 17 17 17 18 20 20 20
1 4 4 6 7 8 8 9 11 13 14 15 15 12 13 14 15 15 15 16 18 20
1 6 4 6 8 7 7 8 10 12 13 14 13 12 11 11 13 14 14 14 16 18
1 4 3 5 7 9 9 8 9 10 12 12 12 12 11 10 10 11 12 13 14 15
3 4 4 4 6 7 8 8 9 10 10 11 9 10 10 9 10 10 11 13 15 16
5 6 4 3 4 5 7 9 10 10 9 10 9 10 10 9 10 11 11 12 14 17
6 6 4 2 2 4 6 8 10 11 8 9 8 8 9 8 8 9 10 12 15 17
6 6 4 2 1 2 5 7 8 9 8 7 9 7 7 7 8 10 11 14 16 18
8 8 6 5 2 2 4 6 11 7 7 7 7 6 7 8 9 10 14 16 19 20
11 10 8 6 4 2 4 6 6 8 7 8 7 6 8 9 11 13 15 18 21 23
11 10 9 10 7 5 5 5 6 9 10 9 10 10 8 8 11 14 17 21 22 23
8 11 11 8 7 5 4 3 4 8 8 9 9 9 9 8 12 15 18 21 20 21
11 11 15 12 12 8 5 0 4 6 9 8 7 8 10 11 13 17 18 19 19 19
10 15 12 9 9 7 4 1 5 6 9 8 7 9 11 13 15 16 18 19 19 16
Wind_Direction
83 79 85 78 63 53 53 48 50 38 36 36 40 43 46 42 44 43 36 32 31 27
111 116 84 58 61 68 63 54 46 38 35 34 36 48 46 44 44 40 36 36 31 28
215 139 92 43 46 70 65 49 40 35 33 33 39 42 45 45 43 40 38 36 28 24
179 140 96 61 52 63 66 47 37 37 31 37 38 35 42 45 40 32 27 27 23 19
197 163 133 97 80 51 51 46 35 31 31 34 38 37 35 33 29 26 29 23 17 12
179 177 159 115 62 48 39 21 19 22 27 30 36 34 30 33 28 26 22 18 12 5
192 190 178 140 53 52 29 16 10 14 25 27 31 30 28 33 26 21 14 10 5 359
227 214 235 197 178 21 29 16 16 18 18 24 19 28 20 16 8 3 5 1 359 357
243 236 225 210 242 338 352 350 336 360 8 13 13 19 18 5 2 2 358 358 356 355
247 232 227 226 244 275 334 342 352 357 359 1 6 8 5 10 8 3 0 357 354 354
248 228 211 196 213 275 300 319 342 354 358 3 7 7 4 1 1 358 358 357 0 3
230 203 200 223 232 208 196 168 5 359 1 2 1 3 3 5 357 360 360 2 8 10
250 215 190 188 182 187 184 165 10 2 4 8 14 10 8 5 4 0 1 7 7 7
249 202 203 211 186 183 183 309 354 3 5 13 10 5 4 1 1 5 5 4 2 5